Powrót do katalogu

DELTA 1 DEB

AktywnyPO
NORAD 7957·DEBRIS·🇺🇸 United States

Wystrzelony Jul 23, 1972 z Vandenberg Space Force Base

Loading…

Następne Przeloty (najbliższe 24 godziny)

TLE

ŚwieżeSource: Space-Track

Epoka: Sep 14, 2026, 01:12 UTC

1 07957U 72058CM  26257.05009826  .00000565  00000-0  30575-3 0  9991
2 07957  98.8920 102.4753 0510663 314.4232  41.6169 13.65432559821199

Śledź DELTA 1 DEB w czasie rzeczywistym z AllMySat

Download on the App Store